{"data":{"norad_id":61069,"epoch":"2026-09-21T06:58:15.408768Z","epoch_age_seconds":123746,"freshness":"FRESH","line1":"1 61069U 24164V   26264.29045612  .00000796  00000+0  37390-4 0  9995","line2":"2 61069  53.1583 261.2475 0001050  89.3138 270.7983 15.31706403113443","mean_motion":15.31706403,"eccentricity":0.000105,"inclination_deg":53.1583,"raan_deg":261.2475,"arg_perigee_deg":89.3138,"mean_anomaly_deg":270.7983,"bstar":3.739e-5,"rev_number":11344,"period_min":94.012794957285,"perigee_km":470.00177820195,"apogee_km":471.44003836269,"semimajor_km":6848.8579082823,"source":"CELESTRAK","updated_at":"2026-09-22T09:00:49.335234Z"}}